STARLINK-1192 (45180 NORAD) Tracking and Keplerian Element Data

This shows tracking and keplerian element data for the satellite.

Feedback or suggestion? Click here.




ElementValue
Catalog45180
NameSTARLINK-1192
Epoch Orbit767
Epoch Day94.25001157
Epoch Year2020
RAAN52.1435
Inclination52.9991
Eccentricity0.0001637
Argument of Perigee77.6157
Mean Anonmoly347.5657
Mean Motion15.05525414
Decay Rate0.00320504
L11 45180U 20012C 20094.25001157 .00320504 00000-0 21065-1 0 9998
L22 45180 52.9991 52.1435 0001637 77.6157 347.5657 15.05525414 7674

Live tracking and technical data element details for STARLINK-1192 (NORAD 45180). STARLINK-1192 can be tracked NOW for your location showing map with azimuth and elevation plus other details from your city location.

Track the satellite on the map from your city or location and see movement details for azimuth, elevation, latitude, longitude, range, height, and movement on the map or in text.







IsCatalogInMostPopularTable: catalog: 45180, numindb: 6
Update: records affected: 1



GetName: 45180 STARLINK-1192

Hit Count: updated at: Mon, 06 Apr 2020 10:43:56 GMT